Leadville, CO

6:53 AM MDT on July 21, 2017 (GMT -0600)
Lake County

Weather History for KLXV - October, 2012

Change the Weather History Date:

Tuesday, October 9, 2012

  Actual Average Record
Temperature  
Mean Temperature 44 °F -  
Max Temperature 53 °F 52 °F 65 °F (1991)
Min Temperature 34 °F 25 °F 10 °F (1990)
Degree Days  
Heating Degree Days 21 26  
Month to date heating degree days 220 225  
Since 1 July heating degree days 1326 1523  
Cooling Degree Days 0 0  
Month to date cooling degree days 0 0  
Year to date cooling degree days 0 0  
Moisture  
Dew Point 12 °F    
Average Humidity 28    
Maximum Humidity 38    
Minimum Humidity 17    
Precipitation  
Precipitation 0.00 in 0.02 in 0.42 in (2005)
Month to date precipitation 0.05 0.26  
Year to date precipitation 9.44 10.29  
Sea Level Pressure  
Sea Level Pressure 29.85 in    
Wind  
Wind Speed 11 mph (NNW)    
Max Wind Speed 29 mph    
Max Gust Speed 40 mph    
Visibility 10 miles    
Events      
T = Trace of Precipitation, MM = Missing Value Source: NWS Daily Summary

Daily Weather History Graph

Daily Weather History Graph

Search for Another Location

Airport or City:

Trip Planner

Search our weather history database for the weather conditions in past years. The results will help you decide how hot, cold, wet, or windy it might be!

Date:

Astronomy

Oct. 09, 2012 Rise Set
Actual Time 7:09 AM MDT 6:34 PM MDT
Civil Twilight 6:42 AM MDT 7:01 PM MDT
Nautical Twilight 6:11 AM MDT 7:32 PM MDT
Astronomical Twilight 5:40 AM MDT 8:03 PM MDT
Moon 12:51 AM MDT (10/9) 3:01 PM MDT (10/9)
Length of Visible Light 12h 18m
Length of Day
11h 25m
Last Quarter, 36% of the Moon is Illuminated
Oct 9
Last Quarter
Oct 15
New
Oct 21
First Quarter
Oct 29
Full
Nov 6
Last Quarter

Hourly Weather History & Observations

Time (MDT) Temp. Windchill Dew Point Humidity Pressure Visibility Wind Dir Wind Speed Gust Speed Precip Events Conditions
12:53 AM 37.9 °F 34.4 °F 8.1 °F 29% 29.81 in 10.0 mi Variable 4.6 mph - N/A   Clear
1:53 AM 37.0 °F - 10.0 °F 33% 29.79 in 10.0 mi Calm Calm - N/A   Clear
2:53 AM 39.0 °F 31.8 °F 10.9 °F 32% 29.79 in 10.0 mi North 11.5 mph 20.7 mph N/A   Clear
3:53 AM 37.0 °F 29.3 °F 10.9 °F 34% 29.79 in 10.0 mi NNW 11.5 mph 16.1 mph N/A   Clear
4:53 AM 39.9 °F 33.4 °F 10.9 °F 31% 29.79 in 10.0 mi NNE 10.4 mph 17.3 mph N/A   Clear
5:53 AM 39.0 °F 32.3 °F 12.0 °F 33% 29.81 in 10.0 mi North 10.4 mph 19.6 mph N/A   Overcast
6:53 AM 39.0 °F 34.8 °F 12.9 °F 34% 29.86 in 10.0 mi NNE 5.8 mph - N/A   Mostly Cloudy
7:53 AM 39.9 °F 34.5 °F 12.9 °F 33% 29.87 in 10.0 mi NNE 8.1 mph 16.1 mph N/A   Clear
8:53 AM 42.1 °F 39.2 °F 12.9 °F 31% 29.88 in 10.0 mi NNW 4.6 mph 18.4 mph N/A   Mostly Cloudy
9:53 AM 45.0 °F 39.7 °F 14.0 °F 29% 29.87 in 9.0 mi WNW 10.4 mph 18.4 mph N/A   Mostly Cloudy
10:53 AM 46.9 °F - 15.1 °F 28% 29.86 in 6.0 mi NW 13.8 mph 23.0 mph N/A   Haze
11:53 AM 48.9 °F - 15.1 °F 26% 29.86 in 10.0 mi WNW 18.4 mph 35.7 mph N/A   Partly Cloudy
12:53 PM 50.0 °F - 12.9 °F 23% 29.83 in 10.0 mi WNW 24.2 mph 36.8 mph N/A   Clear
1:53 PM 51.1 °F - 10.0 °F 19% 29.81 in 9.0 mi WNW 26.5 mph 36.8 mph N/A   Clear
2:53 PM 52.0 °F - 8.1 °F 17% 29.80 in 10.0 mi West 20.7 mph 31.1 mph N/A   Clear
3:53 PM 52.0 °F - 9.0 °F 18% 29.82 in 10.0 mi WNW 17.3 mph 29.9 mph N/A   Clear
4:53 PM 52.0 °F - 10.0 °F 19% 29.80 in 10.0 mi West 19.6 mph 29.9 mph N/A   Clear
5:53 PM 50.0 °F - 12.0 °F 22% 29.84 in 10.0 mi WNW 12.7 mph 20.7 mph N/A   Clear
6:53 PM 46.0 °F 41.9 °F 10.9 °F 24% 29.88 in 10.0 mi NW 8.1 mph - N/A   Clear
7:53 PM 43.0 °F 40.3 °F 12.9 °F 30% 29.91 in 10.0 mi North 4.6 mph - N/A   Clear
8:53 PM 39.9 °F 37.8 °F 12.0 °F 32% 29.95 in 10.0 mi NE 3.5 mph - N/A   Clear
9:53 PM 39.9 °F 35.1 °F 14.0 °F 35% 29.94 in 10.0 mi North 6.9 mph - N/A   Clear
10:53 PM 37.0 °F - 12.9 °F 37% 29.95 in 10.0 mi Calm Calm - N/A   Clear
11:53 PM 35.1 °F 28.6 °F 12.9 °F 40% 29.96 in 10.0 mi NNE 8.1 mph - N/A   Clear